| time (UTC) | temp F | wind direction | speed knots | gust knots | rain 1hr in | rain 24hr in | rain mn in | humidity % | barometer mb |
| 20260510224731 | 61 | 207 | 0.0 | 0.9 | 0.00 | 0.00 | 0.00 | 43 | 1030.8 |
| 20260510224228 | 61 | 151 | 1.7 | 1.7 | 0.00 | 0.00 | 0.00 | 42 | 1031.2 |
| 20260510223726 | 60 | 220 | 0.0 | 0.9 | 0.00 | 0.00 | 0.00 | 44 | 1031.3 |
| 20260510223223 | 60 | 225 | 2.6 | 4.3 | 0.00 | 0.00 | 0.00 | 42 | 1031.0 |
| 20260510222720 | 60 | 253 | 2.6 | 2.6 | 0.00 | 0.00 | 0.00 | 42 | 1031.3 |
| 20260510222217 | 60 | 132 | 2.6 | 6.1 | 0.00 | 0.00 | 0.00 | 43 | 1031.2 |
| 20260510221711 | 61 | 152 | 0.9 | 1.7 | 0.00 | 0.00 | 0.00 | 42 | 1031.0 |
| 20260510221209 | 60 | 218 | 0.0 | 0.9 | 0.00 | 0.00 | 0.00 | 44 | 1031.2 |
| 20260510220706 | 60 | 13 | 2.6 | 2.6 | 0.00 | 0.00 | 0.00 | 44 | 1031.0 |
| 20260510220206 | 60 | 285 | 3.5 | 4.3 | 0.00 | 0.00 | 0.00 | 44 | 1031.4 |
| 20260510215703 | 60 | 241 | 0.9 | 0.9 | 0.00 | 0.00 | 0.00 | 43 | 1031.4 |
| 20260510215201 | 59 | 138 | 0.9 | 0.9 | 0.00 | 0.00 | 0.00 | 43 | 1031.3 |
| 20260510214658 | 60 | 226 | 0.0 | 0.9 | 0.00 | 0.00 | 0.00 | 44 | 1031.4 |
| 20260510214155 | 61 | 12 | 4.3 | 6.1 | 0.00 | 0.00 | 0.00 | 44 | 1031.3 |
| 20260510213652 | 60 | 207 | 0.9 | 1.7 | 0.00 | 0.00 | 0.00 | 44 | 1031.2 |
| 20260510213148 | 60 | 178 | 2.6 | 2.6 | 0.00 | 0.00 | 0.00 | 45 | 1031.5 |
| 20260510212644 | 60 | 73 | 4.3 | 6.1 | 0.00 | 0.00 | 0.00 | 44 | 1031.4 |
| 20260510212136 | 60 | 177 | 0.9 | 1.7 | 0.00 | 0.00 | 0.00 | 45 | 1031.4 |
| 20260510211632 | 60 | 92 | 6.1 | 7.8 | 0.00 | 0.00 | 0.00 | 46 | 1031.4 |
| 20260510211127 | 61 | 199 | 0.9 | 1.7 | 0.00 | 0.00 | 0.00 | 45 | 1031.8 |
| 20260510210624 | 60 | 190 | 1.7 | 2.6 | 0.00 | 0.00 | 0.00 | 46 | 1031.7 |
| 20260510210120 | 58 | 28 | 1.7 | 4.3 | 0.00 | 0.00 | 0.00 | 47 | 1031.4 |
| 20260510205618 | 59 | 150 | 2.6 | 4.3 | 0.00 | 0.00 | 0.00 | 47 | 1031.4 |
| 20260510205114 | 59 | 98 | 1.7 | 1.7 | 0.00 | 0.00 | 0.00 | 46 | 1031.7 |
| 20260510204611 | 59 | 129 | 2.6 | 4.3 | 0.00 | 0.00 | 0.00 | 46 | 1031.4 |
| 20260510204108 | 59 | 279 | 4.3 | 6.1 | 0.00 | 0.00 | 0.00 | 46 | 1031.7 |
| 20260510203604 | 59 | 147 | 4.3 | 6.1 | 0.00 | 0.00 | 0.00 | 46 | 1031.7 |
| 20260510203102 | 62 | 44 | 5.2 | 7.0 | 0.00 | 0.00 | 0.00 | 44 | 1031.5 |
| 20260510202600 | 59 | 163 | 0.9 | 1.7 | 0.00 | 0.00 | 0.00 | 48 | 1031.5 |
| 20260510202057 | 60 | 116 | 2.6 | 4.3 | 0.00 | 0.00 | 0.00 | 45 | 1031.7 |
| 20260510201554 | 60 | 261 | 2.6 | 4.3 | 0.00 | 0.00 | 0.00 | 47 | 1031.5 |
| 20260510201051 | 57 | 145 | 3.5 | 4.3 | 0.00 | 0.00 | 0.00 | 49 | 1031.7 |
| 20260510200546 | 57 | 354 | 6.1 | 7.0 | 0.00 | 0.00 | 0.00 | 49 | 1031.5 |
| 20260510200044 | 58 | 255 | 0.9 | 0.9 | 0.00 | 0.00 | 0.00 | 46 | 1032.1 |
| 20260510195543 | 60 | 134 | 3.5 | 5.2 | 0.00 | 0.00 | 0.00 | 46 | 1032.1 |
| 20260510195038 | 57 | 222 | 0.9 | 0.9 | 0.00 | 0.00 | 0.00 | 48 | 1032.3 |
| 20260510194533 | 57 | 329 | 4.3 | 5.2 | 0.00 | 0.00 | 0.00 | 48 | 1031.7 |
| 20260510194030 | 59 | 182 | 4.3 | 5.2 | 0.00 | 0.00 | 0.00 | 47 | 1031.8 |
| 20260510193525 | 57 | 247 | 2.6 | 2.6 | 0.00 | 0.00 | 0.00 | 50 | 1031.8 |
| 20260510193020 | 56 | 131 | 1.7 | 2.6 | 0.00 | 0.00 | 0.00 | 50 | 1031.8 |
| 20260510192515 | 58 | 118 | 3.5 | 5.2 | 0.00 | 0.00 | 0.00 | 49 | 1031.8 |
| 20260510192012 | 56 | 169 | 5.2 | 7.0 | 0.00 | 0.00 | 0.00 | 49 | 1031.9 |
| 20260510191508 | 56 | 45 | 4.3 | 6.1 | 0.00 | 0.00 | 0.00 | 52 | 1031.8 |
| 20260510191005 | 56 | 134 | 4.3 | 7.8 | 0.00 | 0.00 | 0.00 | 51 | 1031.9 |
| 20260510190502 | 56 | 134 | 6.1 | 7.0 | 0.00 | 0.00 | 0.00 | 51 | 1031.8 |
| 20260510185959 | 58 | 50 | 5.2 | 6.1 | 0.00 | 0.00 | 0.00 | 51 | 1031.7 |
| 20260510185456 | 57 | 104 | 3.5 | 4.3 | 0.00 | 0.00 | 0.00 | 49 | 1031.7 |
| 20260510184954 | 56 | 35 | 2.6 | 4.3 | 0.00 | 0.00 | 0.00 | 51 | 1031.8 |
| 20260510184451 | 58 | 313 | 3.5 | 5.2 | 0.00 | 0.00 | 0.00 | 52 | 1031.9 |
| 20260510183951 | 57 | 19 | 4.3 | 5.2 | 0.00 | 0.00 | 0.00 | 52 | 1031.8 |
| 20260510183447 | 55 | 341 | 2.6 | 4.3 | 0.00 | 0.00 | 0.00 | 54 | 1031.9 |
| 20260510182947 | 54 | 140 | 3.5 | 6.1 | 0.00 | 0.00 | 0.00 | 55 | 1032.1 |
| 20260510182444 | 57 | 127 | 4.3 | 6.1 | 0.00 | 0.00 | 0.00 | 51 | 1031.8 |
| 20260510181939 | 55 | 339 | 2.6 | 2.6 | 0.00 | 0.00 | 0.00 | 54 | 1031.8 |
| 20260510181438 | 55 | 118 | 1.7 | 2.6 | 0.00 | 0.00 | 0.00 | 55 | 1031.9 |
| 20260510180933 | 55 | 39 | 3.5 | 6.1 | 0.00 | 0.00 | 0.00 | 53 | 1031.8 |
| 20260510180431 | 55 | 145 | 4.3 | 5.2 | 0.00 | 0.00 | 0.00 | 53 | 1032.2 |
| 20260510175927 | 55 | 56 | 4.3 | 6.1 | 0.00 | 0.00 | 0.00 | 53 | 1032.2 |
| 20260510175423 | 55 | 344 | 5.2 | 7.0 | 0.00 | 0.00 | 0.00 | 53 | 1031.9 |
| 20260510174919 | 55 | 316 | 3.5 | 5.2 | 0.00 | 0.00 | 0.00 | 53 | 1031.9 |
| 20260510174418 | 55 | 62 | 5.2 | 7.0 | 0.00 | 0.00 | 0.00 | 52 | 1032.2 |
| 20260510173914 | 56 | 201 | 1.7 | 2.6 | 0.00 | 0.00 | 0.00 | 51 | 1031.9 |
| 20260510173409 | 56 | 88 | 1.7 | 2.6 | 0.00 | 0.00 | 0.00 | 50 | 1031.8 |
| 20260510172906 | 53 | 234 | 0.9 | 0.9 | 0.00 | 0.00 | 0.00 | 52 | 1031.9 |
| 20260510172402 | 53 | 86 | 2.6 | 4.3 | 0.00 | 0.00 | 0.00 | 52 | 1031.8 |
| 20260510171858 | 54 | 349 | 5.2 | 5.2 | 0.00 | 0.00 | 0.00 | 51 | 1032.1 |
| 20260510171356 | 53 | 252 | 2.6 | 2.6 | 0.00 | 0.00 | 0.00 | 54 | 1031.7 |
| 20260510170852 | 54 | 119 | 1.7 | 2.6 | 0.00 | 0.00 | 0.00 | 52 | 1031.9 |
| 20260510170349 | 53 | 202 | 1.7 | 1.7 | 0.00 | 0.00 | 0.00 | 52 | 1031.9 |
| 20260510165844 | 53 | 28 | 5.2 | 7.8 | 0.00 | 0.00 | 0.00 | 51 | 1032.1 |
| 20260510165341 | 53 | 305 | 7.8 | 9.6 | 0.00 | 0.00 | 0.00 | 50 | 1031.9 |
| 20260510164838 | 54 | 1 | 3.5 | 5.2 | 0.00 | 0.00 | 0.00 | 49 | 1032.1 |
| 20260510164335 | 55 | 308 | 5.2 | 6.1 | 0.00 | 0.00 | 0.00 | 48 | 1031.7 |
| 20260510163835 | 54 | 143 | 1.7 | 1.7 | 0.00 | 0.00 | 0.00 | 45 | 1032.1 |
| 20260510163332 | 54 | 106 | 2.6 | 4.3 | 0.00 | 0.00 | 0.00 | 46 | 1031.8 |
| 20260510162826 | 53 | 31 | 5.2 | 7.8 | 0.00 | 0.00 | 0.00 | 45 | 1031.7 |
| 20260510162323 | 53 | 285 | 1.7 | 1.7 | 0.00 | 0.00 | 0.00 | 46 | 1031.7 |
| 20260510161819 | 53 | 125 | 3.5 | 4.3 | 0.00 | 0.00 | 0.00 | 47 | 1031.9 |
| 20260510161315 | 52 | 203 | 0.9 | 1.7 | 0.00 | 0.00 | 0.00 | 44 | 1031.8 |
| 20260510160812 | 53 | 32 | 1.7 | 1.7 | 0.00 | 0.00 | 0.00 | 43 | 1031.8 |
| 20260510160308 | 51 | 49 | 4.3 | 6.1 | 0.00 | 0.00 | 0.00 | 45 | 1031.8 |
| 20260510155803 | 52 | 337 | 2.6 | 2.6 | 0.00 | 0.00 | 0.00 | 47 | 1032.1 |
| 20260510155259 | 52 | 38 | 5.2 | 6.1 | 0.00 | 0.00 | 0.00 | 44 | 1031.7 |
| 20260510154755 | 51 | 101 | 3.5 | 5.2 | 0.00 | 0.00 | 0.00 | 45 | 1031.8 |
| 20260510154251 | 53 | 200 | 0.0 | 0.0 | 0.00 | 0.00 | 0.00 | 46 | 1031.5 |
| 20260510153746 | 53 | 205 | 0.0 | 0.9 | 0.00 | 0.00 | 0.00 | 49 | 1031.9 |
| 20260510153242 | 51 | 182 | 0.9 | 1.7 | 0.00 | 0.00 | 0.00 | 52 | 1031.5 |
| 20260510152739 | 51 | 41 | 1.7 | 2.6 | 0.00 | 0.00 | 0.00 | 57 | 1031.5 |
| 20260510152236 | 50 | 161 | 1.7 | 2.6 | 0.00 | 0.00 | 0.00 | 59 | 1031.8 |
| 20260510151732 | 50 | 104 | 2.6 | 2.6 | 0.00 | 0.00 | 0.00 | 57 | 1031.7 |
| 20260510151231 | 49 | 120 | 1.7 | 1.7 | 0.00 | 0.00 | 0.00 | 59 | 1031.7 |
| 20260510150726 | 49 | 157 | 2.6 | 4.3 | 0.00 | 0.00 | 0.00 | 60 | 1031.8 |
| 20260510150222 | 49 | 89 | 1.7 | 2.6 | 0.00 | 0.00 | 0.00 | 62 | 1031.7 |
| 20260510145718 | 49 | 195 | 0.9 | 0.9 | 0.00 | 0.00 | 0.00 | 65 | 1031.4 |
| 20260510145215 | 47 | 118 | 0.9 | 0.9 | 0.00 | 0.00 | 0.00 | 67 | 1031.7 |
| 20260510144711 | 47 | 92 | 1.7 | 1.7 | 0.00 | 0.00 | 0.00 | 68 | 1031.5 |
| 20260510144208 | 47 | 15 | 1.7 | 1.7 | 0.00 | 0.00 | 0.00 | 71 | 1031.8 |
| 20260510143702 | 47 | 5 | 0.9 | 1.7 | 0.00 | 0.00 | 0.00 | 72 | 1031.7 |
| 20260510143159 | 46 | 62 | 0.9 | 0.9 | 0.00 | 0.00 | 0.00 | 73 | 1031.8 |
| 20260510142655 | 46 | 223 | 0.9 | 1.7 | 0.00 | 0.00 | 0.00 | 76 | 1031.7 |
| 20260510142152 | 45 | 217 | 0.0 | 0.0 | 0.00 | 0.00 | 0.00 | 75 | 1031.8 |
| 20260510141649 | 45 | 217 | 0.0 | 0.9 | 0.00 | 0.00 | 0.00 | 76 | 1031.7 |
| 20260510141148 | 44 | 221 | 0.0 | 0.0 | 0.00 | 0.00 | 0.00 | 79 | 1031.9 |
| 20260510140644 | 44 | 216 | 0.0 | 0.9 | 0.00 | 0.00 | 0.00 | 79 | 1031.8 |
| 20260510140143 | 43 | 231 | 0.9 | 0.9 | 0.00 | 0.00 | 0.00 | 81 | 1032.1 |
| 20260510135638 | 43 | 244 | 0.9 | 1.7 | 0.00 | 0.00 | 0.00 | 83 | 1031.7 |
| 20260510135135 | 42 | 276 | 0.9 | 0.9 | 0.00 | 0.00 | 0.00 | 85 | 1031.7 |
| 20260510134632 | 43 | 317 | 0.9 | 0.9 | 0.00 | 0.00 | 0.00 | 85 | 1031.9 |
| 20260510134129 | 42 | 208 | 0.0 | 0.9 | 0.00 | 0.00 | 0.00 | 87 | 1032.1 |
| 20260510133625 | 41 | 201 | 0.0 | 0.9 | 0.00 | 0.00 | 0.00 | 88 | 1031.9 |
| 20260510133121 | 41 | 306 | 0.0 | 0.9 | 0.00 | 0.00 | 0.00 | 89 | 1031.5 |
| 20260510132617 | 42 | 188 | 0.9 | 0.9 | 0.00 | 0.00 | 0.00 | 89 | 1031.8 |
| 20260510132115 | 42 | 189 | 0.0 | 0.0 | 0.00 | 0.00 | 0.00 | 92 | 1032.1 |
| 20260510131612 | 41 | 199 | 0.0 | 0.0 | 0.00 | 0.00 | 0.00 | 96 | 1032.1 |
| 20260510131109 | 40 | 193 | 0.0 | 0.0 | 0.00 | 0.00 | 0.00 | 99 | 1032.1 |
| 20260510130606 | 39 | 57 | 0.0 | 0.0 | 0.00 | 0.00 | 0.00 | 99 | 1032.3 |
| 20260510130104 | 39 | 296 | 0.0 | 0.0 | 0.00 | 0.00 | 0.00 | 99 | 1032.1 |
| 20260510125559 | 38 | 208 | 0.0 | 0.0 | 0.00 | 0.00 | 0.00 | 99 | 1031.9 |
| 20260510125056 | 37 | 194 | 0.9 | 0.9 | 0.00 | 0.00 | 0.00 | 99 | 1032.1 |
| 20260510124552 | 37 | 221 | 0.0 | 0.0 | 0.00 | 0.00 | 0.00 | 99 | 1032.3 |
| 20260510124050 | 37 | 216 | 0.0 | 0.0 | 0.00 | 0.00 | 0.00 | 99 | 1031.8 |
| 20260510123545 | 37 | 226 | 0.0 | 0.0 | 0.00 | 0.00 | 0.00 | 99 | 1032.1 |
| 20260510123041 | 37 | 205 | 0.9 | 0.9 | 0.00 | 0.00 | 0.00 | 99 | 1031.9 |
| 20260510122537 | 37 | 217 | 0.0 | 0.0 | 0.00 | 0.00 | 0.00 | 99 | 1031.8 |
| 20260510122033 | 37 | 214 | 0.0 | 0.0 | 0.00 | 0.00 | 0.00 | 99 | 1031.9 |
| 20260510121531 | 37 | 212 | 0.0 | 0.0 | 0.00 | 0.00 | 0.00 | 99 | 1031.7 |
| 20260510121028 | 37 | 220 | 0.0 | 0.0 | 0.00 | 0.00 | 0.00 | 99 | 1031.8 |
| 20260510120525 | 37 | 212 | 0.0 | 0.0 | 0.00 | 0.00 | 0.00 | 99 | 1031.5 |
| 20260510120021 | 37 | 227 | 0.0 | 0.0 | 0.00 | 0.00 | 0.00 | 99 | 1031.8 |
| 20260510115518 | 38 | 224 | 0.0 | 0.0 | 0.00 | 0.00 | 0.00 | 99 | 1031.5 |
| 20260510115014 | 38 | 214 | 0.0 | 0.0 | 0.00 | 0.00 | 0.00 | 99 | 1031.3 |
| 20260510114510 | 38 | 221 | 0.0 | 0.0 | 0.00 | 0.00 | 0.00 | 99 | 1031.3 |
| 20260510114007 | 38 | 220 | 0.0 | 0.0 | 0.00 | 0.00 | 0.00 | 99 | 1031.3 |
| 20260510113502 | 38 | 220 | 0.0 | 0.0 | 0.00 | 0.00 | 0.00 | 99 | 1031.5 |
| 20260510113000 | 38 | 215 | 0.0 | 0.0 | 0.00 | 0.00 | 0.00 | 99 | 1031.4 |
| 20260510112456 | 38 | 219 | 0.0 | 0.0 | 0.00 | 0.00 | 0.00 | 99 | 1031.3 |
| 20260510111953 | 38 | 221 | 0.0 | 0.0 | 0.00 | 0.00 | 0.00 | 99 | 1031.4 |
| 20260510111449 | 38 | 226 | 0.0 | 0.0 | 0.00 | 0.00 | 0.00 | 99 | 1031.4 |
| 20260510110945 | 38 | 226 | 0.0 | 0.0 | 0.00 | 0.00 | 0.00 | 99 | 1031.3 |
| 20260510110442 | 38 | 225 | 0.0 | 0.0 | 0.00 | 0.00 | 0.00 | 99 | 1031.4 |
| 20260510105937 | 38 | 224 | 0.0 | 0.0 | 0.00 | 0.00 | 0.00 | 99 | 1031.3 |
| 20260510105433 | 37 | 223 | 0.0 | 0.0 | 0.00 | 0.00 | 0.00 | 99 | 1031.2 |
| 20260510104928 | 37 | 224 | 0.0 | 0.0 | 0.00 | 0.00 | 0.00 | 99 | 1031.0 |
| 20260510104425 | 37 | 223 | 0.0 | 0.0 | 0.00 | 0.00 | 0.00 | 99 | 1030.9 |
| 20260510103922 | 37 | 233 | 0.0 | 0.0 | 0.00 | 0.00 | 0.00 | 99 | 1031.0 |
| 20260510103420 | 37 | 221 | 0.0 | 0.0 | 0.00 | 0.00 | 0.00 | 99 | 1031.0 |
| 20260510102914 | 37 | 221 | 0.0 | 0.0 | 0.00 | 0.00 | 0.00 | 99 | 1030.9 |
| 20260510102410 | 37 | 221 | 0.0 | 0.0 | 0.00 | 0.00 | 0.00 | 99 | 1031.2 |
| 20260510101908 | 37 | 229 | 0.0 | 0.0 | 0.00 | 0.00 | 0.00 | 99 | 1030.5 |
| 20260510101406 | 36 | 212 | 0.0 | 0.0 | 0.00 | 0.00 | 0.00 | 99 | 1030.8 |
| 20260510100903 | 36 | 230 | 0.0 | 0.0 | 0.00 | 0.00 | 0.00 | 99 | 1030.7 |
| 20260510100400 | 37 | 243 | 0.0 | 0.0 | 0.00 | 0.00 | 0.00 | 99 | 1030.7 |
| 20260510095856 | 37 | 221 | 0.0 | 0.0 | 0.00 | 0.00 | 0.00 | 99 | 1030.5 |
| 20260510095350 | 36 | 224 | 0.0 | 0.0 | 0.00 | 0.00 | 0.00 | 99 | 1030.8 |
| 20260510094850 | 36 | 226 | 0.0 | 0.0 | 0.00 | 0.00 | 0.00 | 99 | 1030.7 |
| 20260510094345 | 36 | 223 | 0.0 | 0.0 | 0.00 | 0.00 | 0.00 | 99 | 1030.4 |
| 20260510093842 | 36 | 226 | 0.0 | 0.0 | 0.00 | 0.00 | 0.00 | 99 | 1030.5 |
| 20260510093338 | 36 | 226 | 0.0 | 0.0 | 0.00 | 0.00 | 0.00 | 99 | 1030.5 |
| 20260510092834 | 36 | 223 | 0.0 | 0.0 | 0.00 | 0.00 | 0.00 | 99 | 1030.5 |
| 20260510092330 | 35 | 224 | 0.0 | 0.0 | 0.00 | 0.00 | 0.00 | 99 | 1030.4 |
| 20260510091826 | 35 | 221 | 0.0 | 0.0 | 0.00 | 0.00 | 0.00 | 99 | 1030.3 |
| 20260510091324 | 35 | 224 | 0.0 | 0.0 | 0.00 | 0.00 | 0.00 | 99 | 1030.5 |
| 20260510090819 | 35 | 219 | 0.0 | 0.0 | 0.00 | 0.00 | 0.00 | 99 | 1030.4 |
| 20260510090317 | 36 | 222 | 0.0 | 0.0 | 0.00 | 0.00 | 0.00 | 99 | 1030.3 |
| 20260510085812 | 36 | 200 | 0.0 | 0.0 | 0.00 | 0.00 | 0.00 | 99 | 1030.2 |
| 20260510085307 | 36 | 215 | 0.0 | 0.0 | 0.00 | 0.00 | 0.00 | 99 | 1029.9 |
| 20260510084803 | 36 | 212 | 0.0 | 0.0 | 0.00 | 0.00 | 0.00 | 99 | 1030.2 |
| 20260510084300 | 37 | 224 | 0.0 | 0.0 | 0.00 | 0.00 | 0.00 | 99 | 1029.8 |
| 20260510083756 | 37 | 219 | 0.0 | 0.0 | 0.00 | 0.00 | 0.00 | 99 | 1030.0 |
| 20260510083253 | 38 | 213 | 0.0 | 0.0 | 0.00 | 0.00 | 0.00 | 99 | 1029.9 |
| 20260510082749 | 38 | 197 | 0.0 | 0.9 | 0.00 | 0.00 | 0.00 | 99 | 1030.2 |
| 20260510082246 | 39 | 216 | 0.0 | 0.0 | 0.00 | 0.00 | 0.00 | 99 | 1030.0 |
| 20260510081745 | 39 | 220 | 0.0 | 0.0 | 0.00 | 0.00 | 0.00 | 99 | 1030.0 |
| 20260510081241 | 39 | 197 | 0.0 | 0.0 | 0.00 | 0.00 | 0.00 | 99 | 1030.3 |
| 20260510080737 | 39 | 218 | 0.0 | 0.0 | 0.00 | 0.00 | 0.00 | 99 | 1030.3 |
| 20260510080232 | 39 | 218 | 0.0 | 0.0 | 0.00 | 0.00 | 0.00 | 99 | 1030.3 |
| 20260510075729 | 39 | 214 | 0.0 | 0.0 | 0.00 | 0.00 | 0.00 | 99 | 1030.4 |
| 20260510075227 | 39 | 221 | 0.0 | 0.0 | 0.00 | 0.00 | 0.00 | 99 | 1030.2 |
| 20260510074724 | 39 | 221 | 0.0 | 0.0 | 0.00 | 0.00 | 0.00 | 99 | 1030.5 |
| 20260510074220 | 39 | 218 | 0.0 | 0.0 | 0.00 | 0.00 | 0.00 | 99 | 1030.4 |
| 20260510073717 | 39 | 223 | 0.0 | 0.0 | 0.00 | 0.00 | 0.00 | 99 | 1030.4 |
| 20260510073212 | 39 | 222 | 0.0 | 0.0 | 0.00 | 0.00 | 0.00 | 99 | 1030.7 |
| 20260510072709 | 39 | 223 | 0.0 | 0.0 | 0.00 | 0.00 | 0.00 | 99 | 1030.5 |
| 20260510072205 | 39 | 224 | 0.0 | 0.0 | 0.00 | 0.00 | 0.00 | 99 | 1030.9 |
| 20260510071702 | 39 | 224 | 0.0 | 0.0 | 0.00 | 0.00 | 0.00 | 99 | 1030.8 |
| 20260510071159 | 39 | 223 | 0.0 | 0.0 | 0.00 | 0.00 | 0.00 | 99 | 1030.7 |
| 20260510070656 | 39 | 214 | 0.0 | 0.0 | 0.00 | 0.00 | 0.00 | 99 | 1030.9 |
| 20260510070154 | 39 | 212 | 0.0 | 0.0 | 0.00 | 0.00 | 0.00 | 99 | 1030.8 |
| 20260510065649 | 39 | 217 | 0.0 | 0.0 | 0.00 | 0.00 | 0.00 | 99 | 1030.8 |
| 20260510065145 | 39 | 224 | 0.0 | 0.0 | 0.00 | 0.00 | 0.00 | 98 | 1030.7 |
| 20260510064642 | 39 | 256 | 0.0 | 0.0 | 0.00 | 0.00 | 0.00 | 98 | 1030.8 |
| 20260510064139 | 39 | 233 | 0.9 | 0.9 | 0.00 | 0.00 | 0.00 | 98 | 1030.7 |
| 20260510063636 | 39 | 231 | 0.9 | 0.9 | 0.00 | 0.00 | 0.00 | 98 | 1030.9 |
| 20260510063133 | 39 | 224 | 0.0 | 0.0 | 0.00 | 0.00 | 0.00 | 98 | 1030.9 |
| 20260510062629 | 39 | 221 | 0.0 | 0.0 | 0.00 | 0.00 | 0.00 | 98 | 1030.7 |
| 20260510062124 | 39 | 237 | 0.9 | 1.7 | 0.00 | 0.00 | 0.00 | 97 | 1030.9 |
| 20260510061620 | 39 | 217 | 0.0 | 0.0 | 0.00 | 0.00 | 0.00 | 97 | 1030.5 |
| 20260510061118 | 39 | 214 | 0.0 | 0.9 | 0.00 | 0.00 | 0.00 | 97 | 1031.0 |
| 20260510060614 | 39 | 227 | 0.0 | 0.0 | 0.00 | 0.00 | 0.00 | 96 | 1031.2 |
| 20260510060110 | 39 | 227 | 0.0 | 0.0 | 0.00 | 0.00 | 0.00 | 96 | 1031.3 |
| 20260510055606 | 39 | 213 | 0.0 | 0.0 | 0.00 | 0.00 | 0.00 | 95 | 1031.2 |
| 20260510055105 | 39 | 220 | 0.0 | 0.0 | 0.00 | 0.00 | 0.00 | 94 | 1030.9 |
| 20260510054600 | 40 | 223 | 0.0 | 0.0 | 0.00 | 0.00 | 0.00 | 94 | 1031.0 |
| 20260510054055 | 40 | 248 | 0.9 | 0.9 | 0.00 | 0.00 | 0.00 | 93 | 1030.9 |
| 20260510053555 | 40 | 229 | 0.0 | 0.9 | 0.00 | 0.00 | 0.00 | 93 | 1030.8 |
| 20260510053052 | 40 | 264 | 0.9 | 0.9 | 0.00 | 0.00 | 0.00 | 92 | 1030.8 |
| 20260510052548 | 40 | 245 | 0.9 | 1.7 | 0.00 | 0.00 | 0.00 | 91 | 1030.9 |
| 20260510052044 | 40 | 296 | 1.7 | 1.7 | 0.00 | 0.00 | 0.00 | 91 | 1030.9 |
| 20260510051540 | 40 | 249 | 0.9 | 0.9 | 0.00 | 0.00 | 0.00 | 90 | 1031.0 |
| 20260510051037 | 40 | 248 | 0.9 | 0.9 | 0.00 | 0.00 | 0.00 | 90 | 1030.9 |
| 20260510050534 | 40 | 235 | 0.0 | 0.0 | 0.00 | 0.00 | 0.00 | 90 | 1030.8 |
| 20260510050031 | 40 | 224 | 0.0 | 0.0 | 0.00 | 0.00 | 0.00 | 90 | 1031.0 |
| 20260510045528 | 40 | 249 | 0.0 | 0.0 | 0.00 | 0.00 | 0.00 | 90 | 1030.8 |
| 20260510045024 | 40 | 260 | 0.0 | 0.9 | 0.00 | 0.00 | 0.00 | 90 | 1030.8 |
| 20260510044521 | 40 | 345 | 2.6 | 2.6 | 0.00 | 0.00 | 0.00 | 90 | 1031.3 |
| 20260510044019 | 40 | 308 | 0.9 | 1.7 | 0.00 | 0.00 | 0.00 | 90 | 1031.0 |
| 20260510043514 | 40 | 72 | 3.5 | 4.3 | 0.00 | 0.00 | 0.00 | 89 | 1031.2 |
| 20260510043009 | 40 | 304 | 3.5 | 5.2 | 0.00 | 0.00 | 0.00 | 89 | 1031.3 |
| 20260510042503 | 40 | 61 | 3.5 | 5.2 | 0.00 | 0.00 | 0.00 | 89 | 1031.2 |
| 20260510041958 | 41 | 354 | 2.6 | 5.2 | 0.00 | 0.00 | 0.00 | 89 | 1031.4 |
| 20260510041455 | 41 | 354 | 2.6 | 5.2 | 0.00 | 0.00 | 0.00 | 89 | 1031.3 |
| 20260510040954 | 41 | 269 | 0.0 | 0.9 | 0.00 | 0.00 | 0.00 | 89 | 1031.2 |
| 20260510040450 | 41 | 67 | 1.7 | 2.6 | 0.00 | 0.00 | 0.00 | 89 | 1031.0 |
| 20260510035946 | 41 | 237 | 0.0 | 0.9 | 0.00 | 0.00 | 0.00 | 89 | 1030.9 |
| 20260510035443 | 41 | 343 | 3.5 | 5.2 | 0.00 | 0.00 | 0.00 | 89 | 1030.9 |
| 20260510034942 | 42 | 335 | 1.7 | 2.6 | 0.00 | 0.00 | 0.00 | 88 | 1031.0 |
| 20260510034441 | 42 | 8 | 4.3 | 7.8 | 0.00 | 0.00 | 0.00 | 88 | 1030.9 |
| 20260510033937 | 43 | 149 | 0.9 | 1.7 | 0.00 | 0.00 | 0.00 | 87 | 1030.3 |
| 20260510033433 | 43 | 233 | 1.7 | 2.6 | 0.00 | 0.00 | 0.00 | 87 | 1030.3 |
| 20260510032930 | 43 | 236 | 0.0 | 0.9 | 0.00 | 0.00 | 0.00 | 86 | 1030.3 |
| 20260510032427 | 43 | 70 | 2.6 | 2.6 | 0.00 | 0.00 | 0.00 | 86 | 1030.3 |
| 20260510031922 | 43 | 236 | 1.7 | 2.6 | 0.00 | 0.00 | 0.00 | 85 | 1030.4 |
| 20260510031418 | 43 | 86 | 0.9 | 2.6 | 0.00 | 0.00 | 0.00 | 85 | 1030.0 |
| 20260510030913 | 43 | 43 | 2.6 | 2.6 | 0.00 | 0.00 | 0.00 | 85 | 1030.2 |
| 20260510030409 | 43 | 352 | 2.6 | 2.6 | 0.00 | 0.00 | 0.00 | 85 | 1030.2 |
| 20260510025907 | 43 | 38 | 2.6 | 4.3 | 0.00 | 0.00 | 0.00 | 86 | 1030.3 |
| 20260510025405 | 43 | 283 | 2.6 | 2.6 | 0.00 | 0.00 | 0.00 | 86 | 1029.8 |
| 20260510024902 | 43 | 74 | 0.0 | 0.9 | 0.00 | 0.00 | 0.00 | 86 | 1029.8 |
| 20260510024358 | 43 | 297 | 2.6 | 4.3 | 0.00 | 0.00 | 0.00 | 86 | 1029.4 |
| 20260510023854 | 43 | 247 | 2.6 | 2.6 | 0.00 | 0.00 | 0.00 | 86 | 1029.1 |
| 20260510023350 | 43 | 36 | 1.7 | 2.6 | 0.00 | 0.00 | 0.00 | 86 | 1028.8 |
| 20260510022848 | 43 | 327 | 3.5 | 5.2 | 0.00 | 0.00 | 0.00 | 86 | 1028.8 |
| 20260510022347 | 43 | 284 | 3.5 | 4.3 | 0.00 | 0.00 | 0.00 | 85 | 1028.6 |
| 20260510021846 | 43 | 285 | 2.6 | 4.3 | 0.00 | 0.00 | 0.00 | 85 | 1028.5 |
| 20260510021344 | 44 | 191 | 2.6 | 2.6 | 0.00 | 0.00 | 0.00 | 84 | 1028.6 |
| 20260510020841 | 44 | 243 | 1.7 | 1.7 | 0.00 | 0.00 | 0.00 | 84 | 1027.9 |
| 20260510020340 | 44 | 353 | 3.5 | 7.0 | 0.00 | 0.00 | 0.00 | 82 | 1027.8 |
| 20260510015836 | 44 | 250 | 4.3 | 7.8 | 0.00 | 0.00 | 0.00 | 81 | 1027.6 |
| 20260510015332 | 46 | 121 | 2.6 | 5.2 | 0.00 | 0.00 | 0.00 | 78 | 1027.1 |
| 20260510014828 | 46 | 51 | 4.3 | 6.1 | 0.00 | 0.00 | 0.00 | 76 | 1026.8 |
| 20260510014325 | 48 | 79 | 6.1 | 11.3 | 0.00 | 0.00 | 0.00 | 73 | 1026.5 |
| 20260510013821 | 49 | 94 | 3.5 | 7.0 | 0.00 | 0.00 | 0.00 | 70 | 1026.1 |
| 20260510013317 | 50 | 63 | 4.3 | 5.2 | 0.00 | 0.00 | 0.00 | 67 | 1025.7 |
| 20260510012813 | 52 | 17 | 9.6 | 12.2 | 0.00 | 0.00 | 0.00 | 63 | 1025.5 |
| 20260510012312 | 57 | 21 | 7.0 | 11.3 | 0.00 | 0.00 | 0.00 | 53 | 1025.2 |
| 20260510011807 | 61 | 19 | 10.4 | 15.6 | 0.00 | 0.00 | 0.00 | 36 | 1024.7 |
| 20260510011303 | 61 | 21 | 1.7 | 1.7 | 0.00 | 0.00 | 0.00 | 36 | 1024.4 |
| 20260510010759 | 61 | 113 | 2.6 | 2.6 | 0.00 | 0.00 | 0.00 | 35 | 1024.5 |
| 20260510010256 | 61 | 268 | 1.7 | 1.7 | 0.00 | 0.00 | 0.00 | 35 | 1024.4 |
| 20260510005753 | 61 | 220 | 0.0 | 0.0 | 0.00 | 0.00 | 0.00 | 35 | 1024.1 |
| 20260510005249 | 60 | 216 | 0.0 | 0.9 | 0.00 | 0.00 | 0.00 | 35 | 1024.0 |
| 20260510004747 | 60 | 94 | 3.5 | 4.3 | 0.00 | 0.00 | 0.00 | 34 | 1024.0 |
| 20260510004245 | 61 | 256 | 0.0 | 0.0 | 0.00 | 0.00 | 0.00 | 35 | 1024.0 |
| 20260510003742 | 61 | 221 | 0.0 | 0.9 | 0.00 | 0.00 | 0.00 | 35 | 1023.6 |
| 20260510003238 | 61 | 50 | 1.7 | 1.7 | 0.00 | 0.00 | 0.00 | 34 | 1023.3 |
| 20260510002737 | 61 | 210 | 0.0 | 0.9 | 0.00 | 0.00 | 0.00 | 34 | 1023.7 |
| 20260510002235 | 62 | 278 | 1.7 | 2.6 | 0.00 | 0.00 | 0.00 | 33 | 1023.1 |
| 20260510001731 | 62 | 128 | 0.9 | 0.9 | 0.00 | 0.00 | 0.00 | 33 | 1023.6 |
| 20260510001230 | 62 | 234 | 0.9 | 0.9 | 0.00 | 0.00 | 0.00 | 34 | 1023.3 |
| 20260510000725 | 62 | 194 | 0.9 | 1.7 | 0.00 | 0.00 | 0.00 | 34 | 1023.3 |
| 20260510000223 | 62 | 226 | 0.0 | 0.0 | 0.00 | 0.00 | 0.00 | 33 | 1023.2 |
| 20260509235720 | 62 | 186 | 0.9 | 1.7 | 0.00 | 0.00 | 0.00 | 34 | 1023.3 |
| 20260509235216 | 63 | 314 | 2.6 | 2.6 | 0.00 | 0.00 | 0.00 | 33 | 1023.1 |
| 20260509234712 | 62 | 218 | 0.0 | 0.0 | 0.00 | 0.00 | 0.00 | 37 | 1023.0 |
| 20260509234209 | 62 | 221 | 0.0 | 0.9 | 0.00 | 0.00 | 0.00 | 35 | 1023.0 |
| 20260509233708 | 62 | 295 | 0.0 | 0.9 | 0.00 | 0.00 | 0.00 | 34 | 1023.0 |
| 20260509233205 | 62 | 249 | 0.0 | 0.0 | 0.00 | 0.00 | 0.00 | 34 | 1023.1 |
| 20260509232701 | 62 | 220 | 0.0 | 0.0 | 0.00 | 0.00 | 0.00 | 35 | 1022.7 |
| 20260509232157 | 63 | 120 | 5.2 | 7.0 | 0.00 | 0.00 | 0.00 | 33 | 1023.0 |
| 20260509231654 | 62 | 226 | 1.7 | 1.7 | 0.00 | 0.00 | 0.00 | 34 | 1022.6 |
| 20260509231152 | 63 | 229 | 1.7 | 1.7 | 0.00 | 0.00 | 0.00 | 34 | 1022.7 |
| 20260509230649 | 62 | 340 | 1.7 | 2.6 | 0.00 | 0.00 | 0.00 | 34 | 1022.8 |
| 20260509230146 | 62 | 344 | 0.9 | 0.9 | 0.00 | 0.00 | 0.00 | 33 | 1023.1 |
| 20260509225641 | 62 | 249 | 0.0 | 0.0 | 0.00 | 0.00 | 0.00 | 34 | 1023.0 |
| 20260509225137 | 61 | 243 | 0.9 | 0.9 | 0.00 | 0.00 | 0.00 | 34 | 1022.8 |